Location: Digermulen
(68.3170°N, 15.0000°E)
Time: 20:52:11
(UTC+01:00)

Envisat - Visible Passes

Search period start: 18 March 2019 00:00
Search period end: 28 March 2019 00:00
Orbit: 764 x 766 km, 98.2° (Epoch: 18 March)

Date Brightness Start Highest point End Pass type
(mag) Time Alt. Az. Time Alt. Az. Time Alt. Az.
18 Mar 4.5 18:54:25 10° SSW 18:59:15 42° W 19:04:06 10° NNW visible
18 Mar 6.0 20:36:53 10° WSW 20:39:41 15° WNW 20:42:29 10° NW visible
19 Mar 5.8 19:58:24 10° SW 20:02:17 22° W 20:06:12 10° NNW visible
20 Mar 5.1 19:20:30 10° SSW 19:25:02 32° W 19:29:36 10° NNW visible
20 Mar 6.4 21:04:29 10° W 21:05:46 11° WNW 21:07:04 10° NW visible
21 Mar 5.9 20:25:04 10° WSW 20:28:15 16° WNW 20:31:27 10° NW visible
22 Mar 5.6 19:46:48 10° SW 19:50:54 24° W 19:55:03 10° NNW visible
23 Mar 6.2 20:52:14 10° W 20:54:18 12° WNW 20:56:24 10° NW visible
24 Mar 5.9 20:13:20 10° WSW 20:16:51 18° WNW 20:20:23 10° NW visible
25 Mar 5.4 19:35:14 10° SW 19:39:32 27° W 19:43:52 10° NNW visible
26 Mar 6.1 20:40:15 10° WSW 20:42:52 14° WNW 20:45:29 10° NW visible
27 Mar 5.8 20:01:39 10° SW 20:05:27 21° W 20:09:15 10° NNW visible
